STARLINK-3753, 52292

Orbit data source: Space-Track

STARLINK-3753, 52292 is a payload satellite owned by SpaceX/Seattle (US) in LEO that was launched on Thu, 21 Apr 2022 UTC via an FALCON 9 launch vehicle from the Air Force Eastern Test Range (AFETR). Payload-class satellites include a variety of spacecraft equipped with specific instruments for various scientific and technological missions. These include communications satellites like Starlink; space stations such as the ISS; scientific satellites like the Hubble; Earth observation satellites from companies like Planet Labs, Umbra, and HawkEye 360; GPS; miniature CubeSats for education and research; and military/defense satellites.

Loading next visibility...
Identifier
52292, 2022-041AH
Orbit
LEO
Country
Flag of USUS
Related business
Manufacturer
SpaceX/Seattle
Mission
Operational Commercial Communications
Bus & Motor
STARLINK, Unknown motor
Mass
297 kg wet, ~275 kg dry
Launch date (UTC)
2022-04-21 (4 years ago)
Launch vehicle
FALCON 9
Launch site
Air Force Eastern Test Range (AFETR)
Object type
Payload
Rocket body
Debris
Shape & HBR
Box + 1 Pan, 10.1 m
Radar Cross Section
11.087 m², Large (>1 m²)

Expand to show TLE details & history
Last TLE update: 22 hours ago

TLE from 22 hours ago
0 STARLINK-3753
1 52292U 22041AH  26236.53615129  .00000732  00000-0  32803-4 0  9992
2 52292  53.1620  57.4181 0001224  91.1462 268.9681 15.34389689239951
Epoch: 2026-08-24T12:52Z
TLE epoch observation values (Epoch: 2026-08-24T12:52:03.471Z)
Latitude
-0.00001°
Longitude
-108.41282°
Altitude
463.651 km
Speed
7.636 km/s
True Right ascension
03h 49m 40s
True Declination
0° 00' 00"
Sunlit
Object was in daylight at epoch
Visualization orbit readout
Latitude
Unknown
Longitude
Unknown
Altitude
Unknown
Speed
Unknown
Apparent Right ascension
Unknown
Apparent Declination
Unknown
Sunlit
N/A
Visualization observer readout
Local Sidereal Time
02:28:12
Azimuth
Unknown
Elevation
Unknown
Doppler factor
Unknown
Orbital elements
Apogee altitude
463.828 km
Perigee altitude
462.153 km
Semi-major axis
6,841.127 km
Eccentricity
0.00012
Inclination
53.162°
RAAN
57.4181°
Arg. of periapsis
91.1462°
True anomaly
268.95408°
Mean anomaly
268.9681°
Eccentric anomaly
268.96109°
Mean motion
3.83576 °/min
Orbital period
93.85 mins
BSTAR
0.000032803
Loading maneuver chart data...
Computing Atmospheric mass density...
Loading historical data...
Loading historical data...
Loading historical data...
Loading historical data...
Loading historical data...
Loading historical data...
Loading historical data...

Documentation

Showing up to 5 results
|